NUSAT-50 (NANCY ROMAN) (60493 NORAD) Tracking and Keplerian Element Data

This shows tracking and keplerian element data for the satellite.

Feedback or suggestion? Click here.




ElementValue
Catalog60493
NameNUSAT-50 (NANCY ROMAN)
Epoch Orbit840
Epoch Day285.18553178
Epoch Year2024
RAAN359.8896
Inclination97.4377
Eccentricity0.0003842
Argument of Perigee284.4341
Mean Anonmoly75.6468
Mean Motion15.19622398
Decay Rate0.00104968
L11 60493U 24149AB 24285.18553178 .00104968 00000+0 48635-2 0 9996
L22 60493 97.4377 359.8896 0003842 284.4341 75.6468 15.19622398 8406



Live tracking and technical data element details for NUSAT-50 (NANCY ROMAN) (NORAD 60493). NUSAT-50 (NANCY ROMAN) can be tracked NOW for your location showing map with azimuth and elevation plus other details from your city location.







IsCatalogInMostPopularTable: catalog: 60493, numindb: 4
Update: records affected: 1



GetName: 60493 NUSAT-50 (NANCY ROMAN)

Hit Count: updated at: Tue, 03 Dec 2024 03:20:04 GMT